Time,TemperatureF,DewpointF,PressureIn,WindDirection,WindDirectionDegrees,WindSpeedMPH,WindSpeedGustMPH,Humidity,HourlyPrecipIn,Conditions,Clouds,dailyrainin,SoftwareType,DateUTC
2013-03-31 00:00:00,68.5,55.2,28.88,South,191,1.5,2.9,62,0.00,,,0.00,WSDL version 420,2013-03-31 05:00:00,
2013-03-31 00:06:00,68.4,55.1,28.88,South,185,1.7,3.4,63,0.00,,,0.00,WSDL version 420,2013-03-31 05:06:00,
2013-03-31 00:10:00,68.6,56.0,28.88,SSW,199,1.9,3.6,65,0.00,,,0.00,WSDL version 420,2013-03-31 05:10:00,
2013-03-31 00:15:00,68.7,56.3,28.88,South,178,2.3,4.3,64,0.00,,,0.00,WSDL version 420,2013-03-31 05:15:00,
2013-03-31 00:20:00,68.7,56.4,28.88,South,186,1.8,4.3,65,0.00,,,0.00,WSDL version 420,2013-03-31 05:20:00,
2013-03-31 00:25:00,68.7,56.3,28.88,South,172,2.2,3.4,65,0.00,,,0.00,WSDL version 420,2013-03-31 05:25:00,
2013-03-31 00:30:00,68.6,56.6,28.88,SSW,210,2.8,4.7,66,0.00,,,0.00,WSDL version 420,2013-03-31 05:30:00,
2013-03-31 00:35:00,68.7,57.0,28.88,South,174,2.1,4.7,67,0.00,,,0.00,WSDL version 420,2013-03-31 05:35:00,
2013-03-31 00:40:00,68.6,57.1,28.85,SSE,163,2.1,4.0,66,0.00,,,0.00,WSDL version 420,2013-03-31 05:40:00,
2013-03-31 00:45:00,68.5,57.0,28.85,South,186,2.4,4.0,67,0.00,,,0.00,WSDL version 420,2013-03-31 05:45:00,
2013-03-31 00:50:00,68.4,57.2,28.85,South,185,2.3,3.8,67,0.00,,,0.00,WSDL version 420,2013-03-31 05:50:00,
2013-03-31 00:55:00,68.4,57.2,28.85,South,180,2.2,3.8,67,0.00,,,0.00,WSDL version 420,2013-03-31 05:55:00,
2013-03-31 01:00:00,68.2,57.0,28.85,SSW,210,2.2,4.9,68,0.00,,,0.00,WSDL version 420,2013-03-31 06:00:00,
2013-03-31 01:05:00,68.0,57.0,28.85,South,183,2.2,4.9,67,0.00,,,0.00,WSDL version 420,2013-03-31 06:05:00,
2013-03-31 01:10:00,68.0,57.1,28.85,NW,304,1.7,4.3,68,0.00,,,0.00,WSDL version 420,2013-03-31 06:10:00,
2013-03-31 01:15:00,67.9,56.8,28.85,SSW,208,2.1,4.0,67,0.00,,,0.00,WSDL version 420,2013-03-31 06:15:00,
2013-03-31 01:20:00,67.6,56.8,28.85,South,170,2.2,4.3,69,0.00,,,0.00,WSDL version 420,2013-03-31 06:20:00,
2013-03-31 01:25:00,67.6,56.9,28.88,South,169,2.3,4.3,68,0.00,,,0.00,WSDL version 420,2013-03-31 06:25:00,
2013-03-31 01:30:00,67.3,56.8,28.88,South,177,2.4,3.6,69,0.00,,,0.00,WSDL version 420,2013-03-31 06:30:00,
2013-03-31 01:35:00,67.3,56.9,28.88,SSW,198,2.9,4.3,70,0.00,,,0.00,WSDL version 420,2013-03-31 06:35:00,
2013-03-31 01:40:00,67.1,56.9,28.85,South,190,2.5,4.3,70,0.00,,,0.00,WSDL version 420,2013-03-31 06:40:00,
2013-03-31 01:45:00,66.9,57.0,28.85,SSW,205,2.4,3.8,70,0.00,,,0.00,WSDL version 420,2013-03-31 06:45:00,
2013-03-31 01:50:00,66.8,56.9,28.85,SSW,197,2.8,3.8,71,0.00,,,0.00,WSDL version 420,2013-03-31 06:50:00,
2013-03-31 01:55:00,66.7,56.9,28.85,SSW,206,2.6,5.6,71,0.00,,,0.00,WSDL version 420,2013-03-31 06:55:00,
2013-03-31 02:00:00,66.6,57.3,28.85,SSW,195,3.3,5.6,73,0.00,,,0.00,WSDL version 420,2013-03-31 07:00:00,
2013-03-31 02:05:00,66.5,57.2,28.85,SSW,203,2.5,5.4,72,0.00,,,0.00,WSDL version 420,2013-03-31 07:05:00,
2013-03-31 02:10:00,66.4,57.4,28.88,SSW,200,3.0,6.5,73,0.00,,,0.00,WSDL version 420,2013-03-31 07:10:00,
2013-03-31 02:15:00,66.4,57.9,28.88,South,180,2.9,6.5,74,0.00,,,0.00,WSDL version 420,2013-03-31 07:15:00,
2013-03-31 02:20:00,66.3,58.2,28.88,South,174,2.9,4.0,74,0.00,,,0.00,WSDL version 420,2013-03-31 07:20:00,
2013-03-31 02:25:00,66.2,58.0,28.85,South,183,3.0,4.9,75,0.00,,,0.00,WSDL version 420,2013-03-31 07:25:00,
2013-03-31 02:30:00,66.2,58.4,28.85,South,191,2.7,5.4,76,0.00,,,0.00,WSDL version 420,2013-03-31 07:30:00,
2013-03-31 02:35:00,66.2,58.4,28.85,SSW,208,2.7,5.4,77,0.00,,,0.00,WSDL version 420,2013-03-31 07:35:00,
2013-03-31 02:40:00,66.2,58.5,28.85,SSW,194,2.9,4.7,76,0.00,,,0.00,WSDL version 420,2013-03-31 07:40:00,
2013-03-31 02:45:00,66.2,58.5,28.85,SSW,203,2.2,4.7,76,0.00,,,0.00,WSDL version 420,2013-03-31 07:45:00,
2013-03-31 02:50:00,66.2,58.8,28.85,SSW,197,2.6,4.0,77,0.00,,,0.00,WSDL version 420,2013-03-31 07:50:00,
2013-03-31 02:55:00,66.4,58.9,28.85,South,186,2.4,3.8,77,0.00,,,0.00,WSDL version 420,2013-03-31 07:55:00,
2013-03-31 03:00:00,66.2,58.8,28.85,SSW,193,2.4,3.8,77,0.00,,,0.00,WSDL version 420,2013-03-31 08:00:00,
2013-03-31 03:05:00,66.2,58.8,28.85,South,188,3.1,5.4,78,0.00,,,0.00,WSDL version 420,2013-03-31 08:05:00,
2013-03-31 03:10:00,66.2,58.8,28.85,SSW,198,2.6,5.4,77,0.00,,,0.00,WSDL version 420,2013-03-31 08:10:00,
2013-03-31 03:15:00,66.2,59.1,28.85,South,180,2.4,3.8,78,0.00,,,0.00,WSDL version 420,2013-03-31 08:15:00,
2013-03-31 03:20:00,66.2,59.0,28.85,SSW,196,2.6,3.8,78,0.00,,,0.00,WSDL version 420,2013-03-31 08:20:00,
2013-03-31 03:25:00,66.2,58.9,28.85,South,178,2.4,3.8,77,0.00,,,0.00,WSDL version 420,2013-03-31 08:25:00,
2013-03-31 03:30:00,66.2,59.0,28.85,South,188,2.5,4.3,78,0.00,,,0.00,WSDL version 420,2013-03-31 08:30:00,
2013-03-31 03:35:00,66.0,59.0,28.85,SSW,208,2.3,4.3,78,0.00,,,0.00,WSDL version 420,2013-03-31 08:35:00,
2013-03-31 03:40:00,66.0,59.0,28.85,South,173,2.2,3.8,78,0.00,,,0.00,WSDL version 420,2013-03-31 08:40:00,
2013-03-31 03:45:00,66.0,59.0,28.85,SSW,198,2.4,3.8,78,0.00,,,0.00,WSDL version 420,2013-03-31 08:45:00,
2013-03-31 03:50:00,66.0,59.1,28.85,SSE,165,2.4,3.6,79,0.00,,,0.00,WSDL version 420,2013-03-31 08:50:00,
2013-03-31 03:55:00,66.0,59.0,28.85,SSW,213,2.0,3.4,78,0.00,,,0.00,WSDL version 420,2013-03-31 08:55:00,
2013-03-31 04:00:00,66.1,59.0,28.85,South,190,1.4,2.9,78,0.00,,,0.00,WSDL version 420,2013-03-31 09:00:00,
2013-03-31 04:05:00,66.1,59.0,28.85,SSW,200,2.1,3.1,78,0.00,,,0.00,WSDL version 420,2013-03-31 09:05:00,
2013-03-31 04:10:00,66.2,59.0,28.85,South,190,1.9,3.1,78,0.00,,,0.00,WSDL version 420,2013-03-31 09:10:00,
2013-03-31 04:15:00,66.1,59.0,28.85,SW,218,2.0,3.1,78,0.00,,,0.00,WSDL version 420,2013-03-31 09:15:00,
2013-03-31 04:20:00,66.2,59.1,28.85,South,183,2.0,3.6,78,0.00,,,0.00,WSDL version 420,2013-03-31 09:20:00,
2013-03-31 04:25:00,66.4,59.3,28.85,SW,225,2.1,3.6,78,0.00,,,0.00,WSDL version 420,2013-03-31 09:25:00,
2013-03-31 04:30:00,66.4,59.3,28.85,SW,218,1.4,3.1,78,0.00,,,0.00,WSDL version 420,2013-03-31 09:30:00,
2013-03-31 04:35:00,66.4,59.3,28.85,South,185,1.8,3.1,78,0.00,,,0.00,WSDL version 420,2013-03-31 09:35:00,
2013-03-31 04:40:00,66.4,59.3,28.85,SSW,193,1.6,3.1,78,0.00,,,0.00,WSDL version 420,2013-03-31 09:40:00,
2013-03-31 04:45:00,66.5,59.6,28.85,SSW,213,1.4,3.1,78,0.00,,,0.00,WSDL version 420,2013-03-31 09:45:00,
2013-03-31 04:50:00,66.6,59.6,28.85,South,190,1.8,3.1,78,0.00,,,0.00,WSDL version 420,2013-03-31 09:50:00,
2013-03-31 04:55:00,66.6,59.6,28.85,SSE,155,1.5,3.1,79,0.00,,,0.00,WSDL version 420,2013-03-31 09:55:00,
2013-03-31 05:00:00,66.6,59.6,28.85,SW,223,1.4,3.1,78,0.00,,,0.00,WSDL version 420,2013-03-31 10:00:00,
2013-03-31 05:05:00,66.6,59.4,28.85,South,176,1.6,3.1,77,0.00,,,0.00,WSDL version 420,2013-03-31 10:05:00,
2013-03-31 05:10:00,66.6,59.4,28.82,SSW,198,1.6,3.1,78,0.00,,,0.00,WSDL version 420,2013-03-31 10:10:00,
2013-03-31 05:15:00,66.6,59.5,28.82,SSE,160,1.8,3.8,78,0.00,,,0.00,WSDL version 420,2013-03-31 10:15:00,
2013-03-31 05:20:00,66.6,59.3,28.82,SW,223,1.3,3.8,78,0.00,,,0.00,WSDL version 420,2013-03-31 10:20:00,
2013-03-31 05:25:00,66.5,59.4,28.85,South,190,1.1,3.1,78,0.00,,,0.00,WSDL version 420,2013-03-31 10:25:00,
2013-03-31 05:30:00,66.4,59.3,28.85,South,175,1.1,2.2,78,0.00,,,0.00,WSDL version 420,2013-03-31 10:30:00,
2013-03-31 05:35:00,66.4,59.3,28.85,SSW,208,1.2,2.5,78,0.00,,,0.00,WSDL version 420,2013-03-31 10:35:00,
2013-03-31 05:40:00,66.4,59.3,28.85,South,178,1.3,2.5,78,0.00,,,0.00,WSDL version 420,2013-03-31 10:40:00,
2013-03-31 05:45:00,66.4,59.6,28.85,SSE,166,1.8,2.7,79,0.00,,,0.00,WSDL version 420,2013-03-31 10:45:00,
2013-03-31 05:50:00,66.2,59.5,28.85,SSW,193,1.3,2.7,79,0.00,,,0.00,WSDL version 420,2013-03-31 10:50:00,
2013-03-31 05:55:00,66.2,59.4,28.85,South,188,2.0,4.0,79,0.00,,,0.00,WSDL version 420,2013-03-31 10:55:00,
2013-03-31 06:00:00,66.4,59.6,28.85,South,175,1.8,4.0,79,0.00,,,0.00,WSDL version 420,2013-03-31 11:00:00,
2013-03-31 06:05:00,66.3,59.7,28.85,SSW,203,1.5,2.9,80,0.00,,,0.00,WSDL version 420,2013-03-31 11:05:00,
2013-03-31 06:10:00,66.3,59.9,28.85,South,173,1.4,2.9,79,0.00,,,0.00,WSDL version 420,2013-03-31 11:10:00,
2013-03-31 06:15:00,66.2,59.6,28.85,SSW,213,1.6,3.1,80,0.00,,,0.00,WSDL version 420,2013-03-31 11:15:00,
2013-03-31 06:20:00,66.2,59.5,28.85,SSE,148,1.3,3.1,79,0.00,,,0.00,WSDL version 420,2013-03-31 11:20:00,
2013-03-31 06:25:00,66.2,59.5,28.85,ENE,75,0.4,2.5,79,0.00,,,0.00,WSDL version 420,2013-03-31 11:25:00,
2013-03-31 06:30:00,66.2,59.3,28.85,SW,218,1.0,2.2,78,0.00,,,0.00,WSDL version 420,2013-03-31 11:30:00,
2013-03-31 06:35:00,66.1,59.4,28.85,SE,145,1.1,2.7,80,0.00,,,0.00,WSDL version 420,2013-03-31 11:35:00,
2013-03-31 06:40:00,66.0,59.7,28.85,SSE,168,1.3,2.7,80,0.00,,,0.00,WSDL version 420,2013-03-31 11:40:00,
2013-03-31 06:45:00,66.0,59.4,28.85,SSW,208,1.1,2.5,79,0.00,,,0.00,WSDL version 420,2013-03-31 11:45:00,
2013-03-31 06:50:00,66.0,59.5,28.85,South,187,1.6,2.9,80,0.00,,,0.00,WSDL version 420,2013-03-31 11:50:00,
2013-03-31 06:55:00,65.9,59.5,28.85,SSE,160,1.9,3.4,80,0.00,,,0.00,WSDL version 420,2013-03-31 11:55:00,
2013-03-31 07:00:00,65.8,59.6,28.85,SSW,195,2.3,3.4,80,0.00,,,0.00,WSDL version 420,2013-03-31 12:00:00,
2013-03-31 07:05:00,65.9,59.5,28.85,SW,214,1.7,3.4,80,0.00,,,0.00,WSDL version 420,2013-03-31 12:05:00,
2013-03-31 07:10:00,65.8,59.5,28.85,SSW,210,1.1,3.4,80,0.00,,,0.00,WSDL version 420,2013-03-31 12:10:00,
2013-03-31 07:15:00,65.8,59.5,28.85,SSW,194,1.0,2.5,80,0.00,,,0.00,WSDL version 420,2013-03-31 12:15:00,
2013-03-31 07:20:00,65.7,59.4,28.85,WSW,240,0.9,2.0,80,0.00,,,0.00,WSDL version 420,2013-03-31 12:20:00,
2013-03-31 07:25:00,65.8,59.4,28.85,West,268,0.4,2.0,80,0.00,,,0.00,WSDL version 420,2013-03-31 12:25:00,
2013-03-31 07:30:00,65.8,59.5,28.85,WSW,243,0.6,2.0,80,0.00,,,0.00,WSDL version 420,2013-03-31 12:30:00,
2013-03-31 07:35:00,65.8,59.7,28.85,SSE,155,1.8,2.5,81,0.00,,,0.00,WSDL version 420,2013-03-31 12:35:00,
2013-03-31 07:40:00,65.7,59.7,28.85,NW,321,0.0,2.7,80,0.00,,,0.00,WSDL version 420,2013-03-31 12:40:00,
2013-03-31 07:45:00,65.8,59.5,28.85,WSW,242,0.1,2.7,80,0.00,,,0.00,WSDL version 420,2013-03-31 12:45:00,
2013-03-31 07:50:00,65.8,59.8,28.85,South,191,1.8,2.9,81,0.00,,,0.00,WSDL version 420,2013-03-31 12:50:00,
2013-03-31 07:55:00,65.8,59.8,28.85,SSW,210,1.9,2.9,81,0.00,,,0.00,WSDL version 420,2013-03-31 12:55:00,
2013-03-31 08:00:00,65.8,59.8,28.85,SW,225,1.3,2.7,80,0.00,,,0.00,WSDL version 420,2013-03-31 13:00:00,
2013-03-31 08:05:00,65.8,59.5,28.85,WNW,293,0.5,2.7,80,0.00,,,0.00,WSDL version 420,2013-03-31 13:05:00,
2013-03-31 08:10:00,66.0,59.7,28.88,NW,315,0.0,1.6,80,0.00,,,0.00,WSDL version 420,2013-03-31 13:10:00,
2013-03-31 08:15:00,66.0,59.8,28.88,South,190,1.4,2.5,81,0.00,,,0.00,WSDL version 420,2013-03-31 13:15:00,
2013-03-31 08:20:00,66.0,59.7,28.88,South,190,1.5,3.1,80,0.00,,,0.00,WSDL version 420,2013-03-31 13:20:00,
2013-03-31 08:25:00,66.1,59.7,28.88,SSW,206,1.3,3.1,80,0.00,,,0.00,WSDL version 420,2013-03-31 13:25:00,
2013-03-31 08:30:00,66.2,59.9,28.88,North,358,1.1,2.7,80,0.00,,,0.00,WSDL version 420,2013-03-31 13:30:00,
2013-03-31 08:35:00,66.3,59.9,28.88,NW,318,0.4,2.5,80,0.00,,,0.00,WSDL version 420,2013-03-31 13:35:00,
2013-03-31 08:40:00,66.4,60.0,28.88,SW,222,0.0,1.3,80,0.00,,,0.00,WSDL version 420,2013-03-31 13:40:00,
2013-03-31 08:45:00,66.6,60.1,28.88,SW,225,0.0,1.1,79,0.00,,,0.00,WSDL version 420,2013-03-31 13:45:00,
2013-03-31 08:50:00,66.7,60.0,28.88,WSW,242,0.0,1.3,79,0.00,,,0.00,WSDL version 420,2013-03-31 13:50:00,
2013-03-31 08:55:00,66.7,60.0,28.88,SW,230,0.0,1.3,79,0.00,,,0.00,WSDL version 420,2013-03-31 13:55:00,
2013-03-31 09:00:00,66.9,60.2,28.88,WSW,242,0.1,1.3,79,0.00,,,0.00,WSDL version 420,2013-03-31 14:00:00,
2013-03-31 09:05:00,66.9,60.2,28.88,South,185,1.2,2.2,79,0.00,,,0.00,WSDL version 420,2013-03-31 14:05:00,
2013-03-31 09:10:00,67.0,60.2,28.88,NW,307,1.0,2.2,78,0.00,,,0.00,WSDL version 420,2013-03-31 14:10:00,
2013-03-31 09:15:00,67.1,60.0,28.88,SSW,203,0.0,1.6,78,0.00,,,0.00,WSDL version 420,2013-03-31 14:15:00,
2013-03-31 09:20:00,67.2,60.2,28.88,SW,225,0.1,1.6,78,0.00,,,0.00,WSDL version 420,2013-03-31 14:20:00,
2013-03-31 09:25:00,67.5,60.4,28.88,SE,138,0.8,2.2,78,0.00,,,0.00,WSDL version 420,2013-03-31 14:25:00,
2013-03-31 09:30:00,67.6,60.5,28.88,West,278,0.0,2.2,78,0.00,,,0.00,WSDL version 420,2013-03-31 14:30:00,
2013-03-31 09:35:00,68.0,60.6,28.88,SSW,206,0.4,1.3,77,0.00,,,0.00,WSDL version 420,2013-03-31 14:35:00,
2013-03-31 09:40:00,68.2,60.5,28.88,SSW,208,1.2,2.2,76,0.00,,,0.00,WSDL version 420,2013-03-31 14:40:00,
2013-03-31 09:45:00,68.4,60.5,28.88,SW,215,1.0,2.2,76,0.00,,,0.00,WSDL version 420,2013-03-31 14:45:00,
2013-03-31 09:50:00,68.4,60.4,28.88,SSW,200,1.0,2.9,76,0.00,,,0.00,WSDL version 420,2013-03-31 14:50:00,
2013-03-31 09:55:00,68.5,60.4,28.88,SSW,193,0.8,2.9,75,0.00,,,0.00,WSDL version 420,2013-03-31 14:55:00,
2013-03-31 10:00:00,68.5,60.3,28.88,SSE,155,1.0,2.7,75,0.00,,,0.00,WSDL version 420,2013-03-31 15:00:00,
2013-03-31 10:05:00,68.5,59.9,28.88,South,178,0.4,2.7,74,0.00,,,0.00,WSDL version 420,2013-03-31 15:05:00,
2013-03-31 10:10:00,68.8,60.2,28.88,SSW,194,0.1,2.0,74,0.00,,,0.00,WSDL version 420,2013-03-31 15:10:00,
2013-03-31 10:15:00,69.2,60.5,28.88,SSW,208,1.2,2.2,73,0.00,,,0.00,WSDL version 420,2013-03-31 15:15:00,
2013-03-31 10:20:00,69.4,60.3,28.88,SW,220,1.2,2.9,72,0.00,,,0.00,WSDL version 420,2013-03-31 15:20:00,
2013-03-31 10:25:00,69.4,60.0,28.88,SSW,193,1.3,3.1,72,0.00,,,0.00,WSDL version 420,2013-03-31 15:25:00,
2013-03-31 10:32:00,69.4,60.0,28.88,South,188,1.6,3.6,72,0.00,,,0.00,WSDL version 420,2013-03-31 15:32:00,
2013-03-31 10:37:00,69.6,59.8,28.88,South,173,1.2,2.9,71,0.00,,,0.00,WSDL version 420,2013-03-31 15:37:00,
2013-03-31 10:42:00,69.8,60.0,28.88,SSW,197,1.1,3.1,71,0.00,,,0.00,WSDL version 420,2013-03-31 15:42:00,
2013-03-31 10:47:00,70.1,59.9,28.88,South,190,1.8,3.1,70,0.00,,,0.00,WSDL version 420,2013-03-31 15:47:00,
2013-03-31 10:52:00,70.0,59.8,28.88,SW,218,1.3,3.1,70,0.00,,,0.00,WSDL version 420,2013-03-31 15:52:00,
2013-03-31 10:57:00,70.2,59.9,28.88,SSW,205,1.4,3.8,70,0.00,,,0.00,WSDL version 420,2013-03-31 15:57:00,
2013-03-31 11:02:00,70.4,60.1,28.88,SSW,210,1.4,3.8,70,0.00,,,0.00,WSDL version 420,2013-03-31 16:02:00,
2013-03-31 11:07:00,70.9,60.3,28.88,South,174,1.0,3.1,69,0.00,,,0.00,WSDL version 420,2013-03-31 16:07:00,
2013-03-31 11:14:00,70.9,60.1,28.88,SSW,203,1.3,3.6,68,0.00,,,0.00,WSDL version 420,2013-03-31 16:14:00,
2013-03-31 11:19:00,70.7,59.9,28.88,East,90,1.1,3.6,69,0.00,,,0.00,WSDL version 420,2013-03-31 16:19:00,
2013-03-31 11:24:00,70.7,59.9,28.88,South,175,1.2,2.9,68,0.00,,,0.00,WSDL version 420,2013-03-31 16:24:00,
2013-03-31 11:29:00,70.7,59.8,28.88,SW,215,1.2,2.5,68,0.00,,,0.00,WSDL version 420,2013-03-31 16:29:00,
2013-03-31 11:34:00,70.7,59.9,28.88,SW,228,0.4,2.2,69,0.00,,,0.00,WSDL version 420,2013-03-31 16:34:00,
2013-03-31 11:39:00,70.9,60.0,28.88,NNW,338,0.6,2.2,69,0.00,,,0.00,WSDL version 420,2013-03-31 16:39:00,
2013-03-31 11:44:00,71.1,60.0,28.88,NNW,338,1.6,2.9,68,0.00,,,0.00,WSDL version 420,2013-03-31 16:44:00,
2013-03-31 11:49:00,71.3,60.2,28.88,NNW,338,1.2,2.9,68,0.00,,,0.00,WSDL version 420,2013-03-31 16:49:00,
2013-03-31 11:54:00,71.8,60.4,28.88,WNW,284,1.0,2.9,67,0.00,,,0.00,WSDL version 420,2013-03-31 16:54:00,
2013-03-31 11:59:00,72.2,60.7,28.88,NNW,333,0.6,2.0,67,0.00,,,0.00,WSDL version 420,2013-03-31 16:59:00,
2013-03-31 12:04:00,72.3,60.8,28.88,NW,313,1.9,2.9,67,0.00,,,0.00,WSDL version 420,2013-03-31 17:04:00,
2013-03-31 12:09:00,72.2,60.2,28.91,NNW,338,1.5,2.9,66,0.00,,,0.00,WSDL version 420,2013-03-31 17:09:00,
2013-03-31 12:14:00,71.9,59.9,28.91,WNW,288,0.6,3.1,66,0.00,,,0.00,WSDL version 420,2013-03-31 17:14:00,
2013-03-31 12:19:00,71.6,59.7,28.91,NW,315,1.1,3.1,66,0.00,,,0.00,WSDL version 420,2013-03-31 17:19:00,
2013-03-31 12:24:00,71.5,59.7,28.91,NNW,338,0.4,2.0,67,0.00,,,0.00,WSDL version 420,2013-03-31 17:24:00,
2013-03-31 12:29:00,71.2,59.7,28.91,NW,309,1.2,2.5,67,0.00,,,0.00,WSDL version 420,2013-03-31 17:29:00,
2013-03-31 12:36:00,70.7,59.5,28.91,NW,315,1.5,2.7,68,0.00,,,0.00,WSDL version 420,2013-03-31 17:36:00,
2013-03-31 12:41:00,70.2,59.4,28.94,NW,315,1.2,2.7,69,0.00,,,0.00,WSDL version 420,2013-03-31 17:41:00,
2013-03-31 12:46:00,69.8,59.6,28.94,NW,323,1.5,2.7,71,0.00,,,0.00,WSDL version 420,2013-03-31 17:46:00,
2013-03-31 12:51:00,69.5,60.4,28.94,NNW,335,1.9,2.7,74,0.05,,,0.05,WSDL version 420,2013-03-31 17:51:00,
2013-03-31 12:56:00,69.1,61.4,28.91,NNW,338,1.5,2.7,77,0.05,,,0.05,WSDL version 420,2013-03-31 17:56:00,
2013-03-31 13:02:00,68.8,62.1,28.91,NNW,338,1.4,2.7,80,0.05,,,0.05,WSDL version 420,2013-03-31 18:02:00,
2013-03-31 13:08:00,68.9,62.6,28.91,NNW,343,1.4,2.7,81,0.05,,,0.05,WSDL version 420,2013-03-31 18:08:00,
2013-03-31 13:12:00,68.9,62.9,28.88,NNE,23,0.0,2.0,81,0.05,,,0.05,WSDL version 420,2013-03-31 18:12:00,
2013-03-31 13:17:00,69.1,63.6,28.88,South,180,1.0,1.6,83,0.05,,,0.05,WSDL version 420,2013-03-31 18:17:00,
2013-03-31 13:22:00,69.0,63.7,28.88,NNE,25,0.3,1.6,83,0.05,,,0.05,WSDL version 420,2013-03-31 18:22:00,
2013-03-31 13:27:00,68.8,63.3,28.88,WNW,293,0.0,2.2,82,0.05,,,0.05,WSDL version 420,2013-03-31 18:27:00,
2013-03-31 13:32:00,68.7,63.0,28.88,NNW,338,0.4,2.2,81,0.05,,,0.05,WSDL version 420,2013-03-31 18:32:00,
2013-03-31 13:37:00,68.7,62.7,28.88,NNW,328,0.0,1.1,81,0.05,,,0.05,WSDL version 420,2013-03-31 18:37:00,
2013-03-31 13:42:00,68.7,63.0,28.91,SSW,197,1.1,1.3,83,0.05,,,0.05,WSDL version 420,2013-03-31 18:42:00,
2013-03-31 13:47:00,68.6,63.1,28.91,SW,225,1.1,2.2,82,0.00,,,0.05,WSDL version 420,2013-03-31 18:47:00,
2013-03-31 13:52:00,68.3,62.6,28.91,NNW,338,0.8,2.2,82,0.05,,,0.10,WSDL version 420,2013-03-31 18:52:00,
2013-03-31 13:57:00,68.1,62.5,28.91,NW,318,0.0,2.0,82,0.05,,,0.10,WSDL version 420,2013-03-31 18:57:00,
2013-03-31 14:02:00,68.0,62.5,28.91,North,360,0.0,1.1,82,0.05,,,0.10,WSDL version 420,2013-03-31 19:02:00,
2013-03-31 14:07:00,68.0,62.4,28.91,North,360,0.3,1.6,82,0.05,,,0.10,WSDL version 420,2013-03-31 19:07:00,
2013-03-31 14:12:00,67.9,62.5,28.88,NE,43,1.5,2.5,83,0.05,,,0.10,WSDL version 420,2013-03-31 19:12:00,
2013-03-31 14:17:00,68.0,63.2,28.88,East,82,0.6,2.9,85,0.05,,,0.10,WSDL version 420,2013-03-31 19:17:00,
2013-03-31 14:22:00,68.5,64.9,28.88,South,183,2.7,4.0,89,0.05,,,0.10,WSDL version 420,2013-03-31 19:22:00,
2013-03-31 14:28:00,68.7,65.9,28.88,South,183,3.3,4.3,91,0.05,,,0.10,WSDL version 420,2013-03-31 19:28:00,
2013-03-31 14:32:00,68.8,66.0,28.88,South,188,2.9,5.6,90,0.05,,,0.10,WSDL version 420,2013-03-31 19:32:00,
2013-03-31 14:37:00,69.2,65.9,28.88,NE,50,0.5,5.6,89,0.05,,,0.10,WSDL version 420,2013-03-31 19:37:00,
2013-03-31 14:42:00,69.3,65.6,28.88,SE,127,0.0,2.2,88,0.05,,,0.10,WSDL version 420,2013-03-31 19:42:00,
2013-03-31 14:47:00,69.2,65.1,28.88,WSW,248,0.0,1.6,87,0.05,,,0.10,WSDL version 420,2013-03-31 19:47:00,
2013-03-31 14:52:00,69.1,64.6,28.88,WNW,293,0.2,2.2,86,0.00,,,0.10,WSDL version 420,2013-03-31 19:52:00,
2013-03-31 14:57:00,68.9,64.4,28.91,WNW,293,0.0,2.2,86,0.00,,,0.10,WSDL version 420,2013-03-31 19:57:00,
2013-03-31 15:02:00,68.7,64.2,28.91,WNW,288,0.6,1.6,86,0.00,,,0.10,WSDL version 420,2013-03-31 20:02:00,
2013-03-31 15:07:00,68.5,64.0,28.91,West,264,0.3,2.5,86,0.05,,,0.16,WSDL version 420,2013-03-31 20:07:00,
2013-03-31 15:12:00,68.4,64.0,28.91,NW,315,0.0,2.5,87,0.05,,,0.16,WSDL version 420,2013-03-31 20:12:00,
2013-03-31 15:17:00,68.4,64.3,28.91,NNW,330,0.0,0.0,88,0.05,,,0.16,WSDL version 420,2013-03-31 20:17:00,
2013-03-31 15:22:00,68.4,64.2,28.91,NE,35,1.7,2.5,86,0.05,,,0.16,WSDL version 420,2013-03-31 20:22:00,
2013-03-31 15:27:00,68.4,63.9,28.88,NE,51,1.7,3.6,86,0.05,,,0.16,WSDL version 420,2013-03-31 20:27:00,
2013-03-31 15:32:00,68.4,64.0,28.88,North,360,0.2,3.6,87,0.05,,,0.16,WSDL version 420,2013-03-31 20:32:00,
2013-03-31 15:37:00,68.4,64.2,28.88,NNE,23,0.2,2.5,87,0.05,,,0.16,WSDL version 420,2013-03-31 20:37:00,
2013-03-31 15:42:00,68.4,64.2,28.85,NNE,23,1.3,2.2,87,0.05,,,0.16,WSDL version 420,2013-03-31 20:42:00,
2013-03-31 15:47:00,68.2,64.1,28.85,NNE,23,0.0,2.2,87,0.05,,,0.16,WSDL version 420,2013-03-31 20:47:00,
2013-03-31 15:52:00,68.2,64.1,28.85,NNE,23,0.0,0.0,87,0.05,,,0.16,WSDL version 420,2013-03-31 20:52:00,
2013-03-31 15:57:00,68.4,64.2,28.85,WNW,288,0.2,1.6,87,0.05,,,0.16,WSDL version 420,2013-03-31 20:57:00,
2013-03-31 16:02:00,68.4,64.2,28.85,NW,318,0.6,1.6,87,0.05,,,0.16,WSDL version 420,2013-03-31 21:02:00,
2013-03-31 16:07:00,68.4,64.0,28.85,NNW,348,1.1,2.0,87,0.00,,,0.16,WSDL version 420,2013-03-31 21:07:00,
2013-03-31 16:12:00,68.5,64.4,28.82,North,360,0.0,2.0,87,0.00,,,0.16,WSDL version 420,2013-03-31 21:12:00,
2013-03-31 16:17:00,68.6,64.5,28.82,NNE,18,0.8,1.6,87,0.00,,,0.16,WSDL version 420,2013-03-31 21:17:00,
2013-03-31 16:22:00,68.8,64.8,28.82,North,8,0.7,2.0,88,0.00,,,0.16,WSDL version 420,2013-03-31 21:22:00,
2013-03-31 16:28:00,68.9,65.1,28.85,SW,214,1.5,2.7,89,0.00,,,0.16,WSDL version 420,2013-03-31 21:28:00,
2013-03-31 16:33:00,69.1,65.8,28.85,West,268,0.0,2.7,90,0.00,,,0.16,WSDL version 420,2013-03-31 21:33:00,
2013-03-31 16:37:00,69.4,66.0,28.85,West,281,1.1,2.0,89,0.00,,,0.16,WSDL version 420,2013-03-31 21:37:00,
2013-03-31 16:42:00,69.8,66.4,28.85,NNW,338,0.6,2.0,89,0.00,,,0.16,WSDL version 420,2013-03-31 21:42:00,
2013-03-31 16:48:00,70.4,67.0,28.85,SSW,208,0.3,1.6,89,0.00,,,0.16,WSDL version 420,2013-03-31 21:48:00,
2013-03-31 16:57:00,71.1,67.3,28.85,NW,315,0.8,2.7,88,0.00,,,0.16,WSDL version 420,2013-03-31 21:57:00,
2013-03-31 17:03:00,71.2,67.1,28.85,NW,307,0.0,2.7,87,0.00,,,0.16,WSDL version 420,2013-03-31 22:03:00,
2013-03-31 17:07:00,71.5,67.1,28.85,WSW,250,0.7,2.5,86,0.00,,,0.16,WSDL version 420,2013-03-31 22:07:00,
2013-03-31 17:12:00,71.8,67.1,28.85,SW,231,1.3,2.7,84,0.00,,,0.16,WSDL version 420,2013-03-31 22:12:00,
2013-03-31 17:17:00,71.9,66.8,28.85,SW,230,0.4,2.7,83,0.00,,,0.16,WSDL version 420,2013-03-31 22:17:00,
2013-03-31 17:22:00,72.1,66.3,28.85,SW,219,0.2,2.2,81,0.00,,,0.16,WSDL version 420,2013-03-31 22:22:00,
2013-03-31 17:27:00,72.3,66.1,28.85,NW,321,1.0,2.2,80,0.00,,,0.16,WSDL version 420,2013-03-31 22:27:00,
2013-03-31 17:32:00,72.3,65.7,28.85,SE,140,0.5,2.0,79,0.00,,,0.16,WSDL version 420,2013-03-31 22:32:00,
2013-03-31 17:37:00,72.4,65.3,28.85,WSW,248,0.0,1.3,78,0.00,,,0.16,WSDL version 420,2013-03-31 22:37:00,
2013-03-31 17:42:00,72.7,65.7,28.85,SW,222,1.2,2.2,78,0.00,,,0.16,WSDL version 420,2013-03-31 22:42:00,
2013-03-31 17:47:00,72.9,65.6,28.85,SW,231,0.6,2.2,78,0.00,,,0.16,WSDL version 420,2013-03-31 22:47:00,
2013-03-31 17:52:00,73.1,65.7,28.85,WSW,245,0.4,2.2,77,0.00,,,0.16,WSDL version 420,2013-03-31 22:52:00,
2013-03-31 17:57:00,73.2,65.4,28.85,SW,231,1.0,2.2,76,0.00,,,0.16,WSDL version 420,2013-03-31 22:57:00,
2013-03-31 18:02:00,73.2,64.8,28.85,South,186,1.2,2.2,75,0.00,,,0.16,WSDL version 420,2013-03-31 23:02:00,
2013-03-31 18:07:00,73.1,64.3,28.85,West,268,0.9,2.0,73,0.00,,,0.16,WSDL version 420,2013-03-31 23:07:00,
2013-03-31 18:12:00,73.0,63.4,28.85,South,180,0.4,2.0,71,0.00,,,0.16,WSDL version 420,2013-03-31 23:12:00,
2013-03-31 18:17:00,72.9,63.0,28.85,SSW,203,0.0,1.3,71,0.00,,,0.16,WSDL version 420,2013-03-31 23:17:00,
2013-03-31 18:22:00,72.9,63.1,28.85,WSW,242,0.0,1.1,72,0.00,,,0.16,WSDL version 420,2013-03-31 23:22:00,
2013-03-31 18:27:00,73.0,63.4,28.85,WSW,248,0.4,1.3,72,0.00,,,0.16,WSDL version 420,2013-03-31 23:27:00,
2013-03-31 18:32:00,73.0,63.5,28.85,South,178,0.0,1.3,72,0.00,,,0.16,WSDL version 420,2013-03-31 23:32:00,
2013-03-31 18:37:00,73.1,63.3,28.85,WSW,248,0.0,1.3,71,0.00,,,0.16,WSDL version 420,2013-03-31 23:37:00,
2013-03-31 18:42:00,73.1,63.1,28.85,WSW,248,0.0,1.1,71,0.00,,,0.16,WSDL version 420,2013-03-31 23:42:00,
2013-03-31 18:47:00,73.0,62.9,28.85,West,264,0.0,0.0,71,0.00,,,0.16,WSDL version 420,2013-03-31 23:47:00,
2013-03-31 18:52:00,72.7,62.4,28.85,West,270,0.0,0.0,70,0.00,,,0.16,WSDL version 420,2013-03-31 23:52:00,
2013-03-31 18:57:00,72.4,62.0,28.85,West,270,0.0,0.0,70,0.00,,,0.16,WSDL version 420,2013-03-31 23:57:00,
2013-03-31 19:02:00,72.0,62.0,28.85,WNW,293,0.0,0.0,71,0.00,,,0.16,WSDL version 420,2013-04-01 00:02:00,
2013-03-31 19:07:00,71.6,61.7,28.85,WNW,293,0.0,0.0,71,0.00,,,0.16,WSDL version 420,2013-04-01 00:07:00,
2013-03-31 19:12:00,71.2,61.7,28.85,WNW,293,0.0,0.0,72,0.00,,,0.16,WSDL version 420,2013-04-01 00:12:00,
2013-03-31 19:17:00,71.0,61.6,28.85,WNW,293,0.0,0.0,73,0.00,,,0.16,WSDL version 420,2013-04-01 00:17:00,
2013-03-31 19:22:00,70.8,61.7,28.85,WNW,293,0.0,0.0,73,0.00,,,0.16,WSDL version 420,2013-04-01 00:22:00,
2013-03-31 19:28:00,70.6,61.5,28.85,WNW,293,0.0,0.0,74,0.00,,,0.16,WSDL version 420,2013-04-01 00:28:00,
2013-03-31 19:32:00,70.2,61.5,28.85,WNW,293,0.0,0.0,74,0.00,,,0.16,WSDL version 420,2013-04-01 00:32:00,
2013-03-31 19:37:00,69.8,61.5,28.85,WNW,293,0.0,0.0,75,0.00,,,0.16,WSDL version 420,2013-04-01 00:37:00,
2013-03-31 19:43:00,69.5,61.6,28.85,WNW,293,0.0,0.0,76,0.00,,,0.16,WSDL version 420,2013-04-01 00:43:00,
2013-03-31 19:47:00,69.2,61.7,28.85,WNW,293,0.0,0.0,77,0.00,,,0.16,WSDL version 420,2013-04-01 00:47:00,
2013-03-31 19:52:00,69.0,61.4,28.85,WNW,293,0.0,0.0,77,0.00,,,0.16,WSDL version 420,2013-04-01 00:52:00,
2013-03-31 19:57:00,68.6,61.1,28.85,WNW,293,0.0,0.0,78,0.00,,,0.16,WSDL version 420,2013-04-01 00:57:00,
2013-03-31 20:02:00,68.4,61.2,28.85,WNW,293,0.0,0.0,78,0.00,,,0.16,WSDL version 420,2013-04-01 01:02:00,
2013-03-31 20:07:00,68.1,60.9,28.85,WNW,293,0.0,0.0,77,0.00,,,0.16,WSDL version 420,2013-04-01 01:07:00,
2013-03-31 20:14:00,67.6,60.5,28.85,WNW,293,0.0,0.0,78,0.00,,,0.16,WSDL version 420,2013-04-01 01:14:00,
2013-03-31 20:19:00,67.4,60.3,28.85,WNW,293,0.0,0.0,78,0.00,,,0.16,WSDL version 420,2013-04-01 01:19:00,
2013-03-31 20:24:00,67.2,60.2,28.85,WNW,293,0.0,0.0,79,0.00,,,0.16,WSDL version 420,2013-04-01 01:24:00,
2013-03-31 20:29:00,67.0,60.2,28.85,WNW,293,0.0,0.0,79,0.00,,,0.16,WSDL version 420,2013-04-01 01:29:00,
2013-03-31 20:34:00,66.6,59.9,28.85,WNW,293,0.0,0.0,79,0.00,,,0.16,WSDL version 420,2013-04-01 01:34:00,
2013-03-31 20:39:00,66.3,59.7,28.85,NW,315,0.0,0.0,79,0.00,,,0.16,WSDL version 420,2013-04-01 01:39:00,
2013-03-31 20:44:00,66.1,59.4,28.85,NW,315,0.0,0.9,79,0.00,,,0.16,WSDL version 420,2013-04-01 01:44:00,
2013-03-31 20:49:00,66.0,59.6,28.85,NW,315,0.0,0.9,80,0.00,,,0.16,WSDL version 420,2013-04-01 01:49:00,
2013-03-31 20:54:00,65.8,59.4,28.88,NW,315,0.0,0.0,80,0.00,,,0.16,WSDL version 420,2013-04-01 01:54:00,
2013-03-31 20:59:00,65.7,59.5,28.88,North,360,1.6,2.0,81,0.00,,,0.16,WSDL version 420,2013-04-01 01:59:00,
2013-03-31 21:04:00,65.5,59.6,28.88,North,360,0.0,2.0,81,0.00,,,0.16,WSDL version 420,2013-04-01 02:04:00,
2013-03-31 21:09:00,65.5,59.8,28.88,North,360,0.0,1.3,82,0.00,,,0.16,WSDL version 420,2013-04-01 02:09:00,
2013-03-31 21:14:00,65.6,60.0,28.88,North,360,0.0,0.0,82,0.00,,,0.16,WSDL version 420,2013-04-01 02:14:00,
2013-03-31 21:19:00,65.7,60.1,28.88,North,360,0.0,0.0,82,0.00,,,0.16,WSDL version 420,2013-04-01 02:19:00,
2013-03-31 21:24:00,65.7,60.1,28.88,North,360,0.0,0.9,82,0.00,,,0.16,WSDL version 420,2013-04-01 02:24:00,
2013-03-31 21:29:00,65.7,60.3,28.88,North,360,0.0,0.9,83,0.00,,,0.16,WSDL version 420,2013-04-01 02:29:00,
2013-03-31 21:34:00,65.7,60.5,28.88,North,360,0.0,0.0,83,0.00,,,0.16,WSDL version 420,2013-04-01 02:34:00,
2013-03-31 21:39:00,65.7,60.1,28.88,NNE,23,1.0,1.6,82,0.00,,,0.16,WSDL version 420,2013-04-01 02:39:00,
2013-03-31 21:44:00,65.7,60.1,28.88,NNE,18,1.3,2.0,82,0.00,,,0.16,WSDL version 420,2013-04-01 02:44:00,
2013-03-31 21:49:00,65.7,59.9,28.88,NNE,25,1.2,2.2,81,0.00,,,0.16,WSDL version 420,2013-04-01 02:49:00,
2013-03-31 21:54:00,65.7,59.5,28.91,NNE,25,1.5,2.7,80,0.00,,,0.16,WSDL version 420,2013-04-01 02:54:00,
2013-03-31 21:59:00,65.7,58.8,28.91,NNE,25,1.6,2.7,78,0.00,,,0.16,WSDL version 420,2013-04-01 02:59:00,
2013-03-31 22:04:00,65.6,58.3,28.91,NNE,23,1.5,2.7,77,0.00,,,0.16,WSDL version 420,2013-04-01 03:04:00,
2013-03-31 22:09:00,65.5,57.6,28.91,NNE,25,2.0,3.6,75,0.00,,,0.16,WSDL version 420,2013-04-01 03:09:00,
2013-03-31 22:14:00,65.5,57.2,28.91,NE,34,1.6,3.6,74,0.00,,,0.16,WSDL version 420,2013-04-01 03:14:00,
2013-03-31 22:19:00,65.4,56.8,28.91,NE,43,1.4,2.5,73,0.00,,,0.16,WSDL version 420,2013-04-01 03:19:00,
2013-03-31 22:24:00,65.2,56.3,28.91,ENE,64,1.0,2.2,73,0.00,,,0.16,WSDL version 420,2013-04-01 03:24:00,
2013-03-31 22:29:00,65.1,56.3,28.91,NE,38,1.5,2.7,73,0.00,,,0.16,WSDL version 420,2013-04-01 03:29:00,
2013-03-31 22:35:00,64.9,56.1,28.91,NNE,23,1.1,2.7,73,0.00,,,0.16,WSDL version 420,2013-04-01 03:35:00,
2013-03-31 22:39:00,64.8,55.9,28.91,NNE,23,0.9,2.5,73,0.00,,,0.16,WSDL version 420,2013-04-01 03:39:00,
2013-03-31 22:44:00,64.6,55.7,28.91,NNE,23,1.2,2.5,73,0.00,,,0.16,WSDL version 420,2013-04-01 03:44:00,
2013-03-31 22:49:00,64.4,55.6,28.91,NE,45,1.7,2.9,73,0.00,,,0.16,WSDL version 420,2013-04-01 03:49:00,
2013-03-31 22:54:00,64.4,55.3,28.94,NNE,30,1.5,2.9,72,0.00,,,0.16,WSDL version 420,2013-04-01 03:54:00,
2013-03-31 23:04:00,64.2,55.4,28.94,NNE,20,0.2,2.5,73,0.00,,,0.16,WSDL version 420,2013-04-01 04:04:00,
2013-03-31 23:09:00,64.0,55.2,28.94,NNE,23,0.6,2.5,73,0.00,,,0.16,WSDL version 420,2013-04-01 04:09:00,
2013-03-31 23:14:00,64.0,55.2,28.94,NE,39,1.6,3.1,73,0.00,,,0.16,WSDL version 420,2013-04-01 04:14:00,
2013-03-31 23:19:00,63.9,55.0,28.94,ENE,58,0.9,3.1,73,0.00,,,0.16,WSDL version 420,2013-04-01 04:19:00,
2013-03-31 23:24:00,63.8,55.0,28.94,NE,45,0.2,2.5,73,0.00,,,0.16,WSDL version 420,2013-04-01 04:24:00,
2013-03-31 23:29:00,63.7,54.9,28.94,NNE,30,1.1,2.5,73,0.00,,,0.16,WSDL version 420,2013-04-01 04:29:00,
2013-03-31 23:34:00,63.7,54.9,28.94,NE,42,1.3,2.7,73,0.00,,,0.16,WSDL version 420,2013-04-01 04:34:00,
2013-03-31 23:39:00,63.5,54.7,28.94,NE,38,0.3,2.7,73,0.00,,,0.16,WSDL version 420,2013-04-01 04:39:00,
2013-03-31 23:44:00,63.5,54.7,28.94,East,83,0.0,2.5,73,0.00,,,0.16,WSDL version 420,2013-04-01 04:44:00,
2013-03-31 23:49:00,63.3,54.5,28.94,NNE,23,1.0,1.6,73,0.00,,,0.16,WSDL version 420,2013-04-01 04:49:00,
2013-03-31 23:54:00,63.1,54.3,28.94,NNE,23,0.0,1.6,73,0.00,,,0.16,WSDL version 420,2013-04-01 04:54:00,
2013-03-31 23:59:00,62.9,54.1,28.94,North,360,0.0,1.1,73,0.00,,,0.16,WSDL version 420,2013-04-01 04:59:00,